Location: Shepherdstown, WV
(39.4326°N, 77.8042°W)
Time: 14:08:48
(UTC-04:00)

A-11 Canister half - All Passes

Search period start: 27 July 2021 00:00
Search period end: 06 August 2021 00:00
Orbit: 1513 x 1687 km, 47.2° (Epoch: 26 July)

Date Brightness Start Highest point End Pass type
(mag) Time Alt. Az. Time Alt. Az. Time Alt. Az.
27 Jul - 01:15:15 10° WNW 01:25:31 85° SSW 01:35:37 10° SE visible
27 Jul - 03:21:16 10° WNW 03:29:39 31° SW 03:37:54 10° S visible
27 Jul - 16:35:22 10° SSE 16:41:26 19° ESE 16:47:37 10° E daylight
27 Jul - 18:35:20 10° SW 18:44:57 65° SE 18:54:54 10° ENE daylight
27 Jul - 20:40:20 10° W 20:50:14 65° NNW 21:00:23 10° ENE visible
27 Jul - 22:46:42 10° WNW 22:56:39 57° N 23:06:40 10° E visible
28 Jul - 00:52:17 10° WNW 01:02:33 88° SSW 01:12:41 10° ESE visible
28 Jul - 02:58:10 10° WNW 03:06:47 33° SW 03:15:17 10° S visible
28 Jul - 16:13:04 10° SSE 16:18:37 17° ESE 16:24:15 10° E daylight
28 Jul - 18:12:31 10° SW 18:22:02 62° SE 18:31:55 10° ENE daylight
28 Jul - 20:17:20 10° W 20:27:13 66° NNW 20:37:22 10° ENE daylight
28 Jul - 22:23:41 10° WNW 22:33:37 57° N 22:43:37 10° E visible
29 Jul - 00:29:19 10° WNW 00:39:34 89° NNE 00:49:45 10° ESE visible
29 Jul - 02:35:05 10° WNW 02:43:55 35° SW 02:52:38 10° SSE visible
29 Jul - 15:50:52 10° SSE 15:55:48 15° ESE 16:00:48 10° E daylight
29 Jul - 17:49:42 10° SW 17:59:08 58° SE 18:08:54 10° ENE daylight
29 Jul - 19:54:20 10° WSW 20:04:12 68° NNW 20:14:22 10° ENE daylight
29 Jul - 22:00:41 10° WNW 22:10:34 56° N 22:20:35 10° E visible
30 Jul - 00:06:21 10° WNW 00:16:36 86° NNE 00:26:47 10° ESE visible
30 Jul - 02:12:01 10° WNW 02:21:02 38° SW 02:29:57 10° SSE visible
30 Jul - 15:28:49 10° SSE 15:33:00 14° ESE 15:37:13 10° E daylight
30 Jul - 17:26:54 10° SSW 17:36:14 55° SE 17:45:54 10° ENE daylight
30 Jul - 19:31:22 10° WSW 19:41:12 70° NNW 19:51:22 10° ENE daylight
30 Jul - 21:37:40 10° WNW 21:47:32 56° N 21:57:32 10° E visible
30 Jul - 23:43:23 10° WNW 23:53:37 83° NNE 00:03:49 10° ESE visible
31 Jul - 01:48:58 10° WNW 01:58:09 40° SW 02:07:15 10° SSE visible
31 Jul - 15:06:59 10° SE 15:10:11 12° ESE 15:13:26 10° E daylight
31 Jul - 17:04:08 10° SSW 17:13:21 52° SE 17:22:54 10° ENE daylight
31 Jul - 19:08:23 10° WSW 19:18:12 72° NNW 19:28:22 10° ENE daylight
31 Jul - 21:14:40 10° WNW 21:24:29 56° N 21:34:29 10° E visible
31 Jul - 23:20:25 10° WNW 23:30:38 80° NNE 23:40:51 10° ESE visible
01 Aug - 01:25:56 10° WNW 01:35:16 43° SW 01:44:31 10° SSE visible
01 Aug - 14:45:45 10° SE 14:47:23 11° ESE 14:49:02 10° ESE daylight
01 Aug - 16:41:23 10° SSW 16:50:27 49° SE 16:59:52 10° ENE daylight
01 Aug - 18:45:25 10° WSW 18:55:13 74° NNW 19:05:23 10° ENE daylight
01 Aug - 20:51:40 10° WNW 21:01:27 55° N 21:11:25 10° ENE visible
01 Aug - 22:57:26 10° WNW 23:07:38 78° NNE 23:17:51 10° ESE visible
02 Aug - 01:02:54 10° WNW 01:12:22 46° SW 01:21:45 10° SSE visible
02 Aug - 16:18:38 10° SSW 16:27:35 46° SE 16:36:51 10° ENE daylight
02 Aug - 18:22:27 10° WSW 18:32:14 76° NNW 18:42:23 10° ENE daylight
02 Aug - 20:28:39 10° WNW 20:38:24 55° N 20:48:23 10° ENE daylight
02 Aug - 22:34:29 10° WNW 22:44:38 75° NNE 22:54:51 10° ESE visible
03 Aug - 00:39:54 10° WNW 00:49:28 48° SW 00:58:59 10° SSE visible
03 Aug - 02:50:28 10° WSW 02:52:39 11° WSW 02:54:50 10° SW visible
03 Aug - 15:55:55 10° SSW 16:04:42 43° SE 16:13:48 10° ENE daylight
03 Aug - 17:59:30 10° WSW 18:09:15 79° NNW 18:19:24 10° ENE daylight
03 Aug - 20:05:39 10° WNW 20:15:22 55° N 20:25:20 10° ENE daylight
03 Aug - 22:11:31 10° WNW 22:21:38 73° NNE 22:31:51 10° ESE visible
04 Aug - 00:16:53 10° WNW 00:26:33 51° SW 00:36:12 10° SSE visible
04 Aug - 02:26:16 10° W 02:29:50 12° WSW 02:33:24 10° SW visible
04 Aug - 15:33:13 10° SSW 15:41:50 40° SE 15:50:46 10° ENE daylight
04 Aug - 17:36:34 10° WSW 17:46:17 82° NNW 17:56:24 10° ENE daylight
04 Aug - 19:42:38 10° W 19:52:20 55° N 20:02:17 10° ENE daylight
04 Aug - 21:48:34 10° WNW 21:58:38 71° NNE 22:08:50 10° ESE visible
04 Aug - 23:53:53 10° WNW 00:03:39 54° SW 00:13:23 10° SSE visible
05 Aug - 02:02:31 10° W 02:07:01 14° WSW 02:11:30 10° SSW visible
05 Aug - 15:10:32 10° SSW 15:18:59 37° SE 15:27:42 10° ENE daylight
05 Aug - 17:13:38 10° WSW 17:23:19 84° NNW 17:33:25 10° ENE daylight
05 Aug - 19:19:38 10° W 19:29:18 56° N 19:39:15 10° ENE daylight
05 Aug - 21:25:35 10° WNW 21:35:38 69° NNE 21:45:49 10° ESE visible
05 Aug - 23:30:54 10° WNW 23:40:44 58° SW 23:50:34 10° SE visible
